User: anonymous   Login
Location: Córrego Montividiu
(13.2496°S, 48.8603°W)
Time: 02:05:17
(UTC+00:00)
Language:

Resurs 01 Rocket - Orbit

View from above orbital plane
View from above orbital plane
View from above satellite
View from above satellite

Ground track
Ground track

The orbit is defined by the following mean orbital elements,

1 23343U          26129.82076551 +.00000000 +00000-0 +42459-4 0 00000
2 23343  97.7019 158.1359 0007300  33.8127 139.4567 14.79469201    04
Epoch (UTC): 09 May 2026 19:41:54
Eccentricity: 0.0007300
inclination: 97.7019°
perigee height: 626 km
apogee height: 636 km
right ascension of ascending node: 158.1359°
argument of perigee: 33.8127°
revolutions per day: 14.79469201
mean anomaly at epoch: 139.4567°

The dashed part of the orbit path shows where the satellite is in the earth's shadow,  

DLR